Location: Aragoneses
(41.0275°N, 4.3847°W)
Time: 04:35:49
(UTC+00:00)

ISS - Pass Details

Date: 15 February 2026
Orbit: 415 x 426 km, 51.6° (Epoch: 11 March)

Event Time Altitude Azimuth Distance (km) Brightness Sun altitude
Exits shadow 06:08:21 21° 259° (W) 987 -2.5 -12.6°
Maximum altitude 06:10:18 51° 328° (NNW) 531 -3.5 -12.3°
Drops below altitude 10° 06:13:35 10° 46° (NE) 1,492 -0.4 -11.6°
Sets 06:15:43 0° 52° (NE) 2,357 0.8 -11.2°
